Wahpeton, MN

9:23 PM CDT on October 14, 2019 (GMT -0500)
Stern

Weather History for KBWP - August, 2019

Change the Weather History Date:

Monday, August 19, 2019

  Actual Average (KFFM) Record (KFFM)
Temperature  
Mean Temperature 66 °F -  
Max Temperature 82 °F 78 °F 97 °F (1959)
Min Temperature 51 °F 55 °F 39 °F (2004)
Cooling Degree Days 2    
Growing Degree Days 16 (Base 50)    
Moisture  
Dew Point 58 °F    
Average Humidity 74    
Maximum Humidity 94    
Minimum Humidity 54    
Precipitation  
Precipitation 0.00 in - - ()
Sea Level Pressure  
Sea Level Pressure 29.91 in    
Wind  
Wind Speed 8 mph (South)    
Max Wind Speed 16 mph    
Max Gust Speed 18 mph    
Visibility 10 miles    
Events      
Averages and records for this station are not official NWS values.
T = Trace of Precipitation, MM = Missing Value Source: NWS Daily Summary

Daily Weather History Graph

Daily Weather History Graph

Search for Another Location

Airport or City:

Astronomy

Aug. 19, 2019 Rise Set
Actual Time 6:30 AM CDT 8:29 PM CDT
Civil Twilight 5:57 AM CDT 9:01 PM CDT
Nautical Twilight 5:17 AM CDT 9:40 PM CDT
Astronomical Twilight 4:33 AM CDT 10:24 PM CDT
Moon 10:38 PM CDT (8/19) 10:23 AM CDT (8/19)
Length of Visible Light 15h 03m
Length of Day
13h 58m
Waning Gibbous, 85% of the Moon is Illuminated
Aug 19
Waning Gibbous
Aug 23
Last Quarter
Aug 30
New
Sep 5
First Quarter
Sep 13
Full

Hourly Weather History & Observations

Time (CDT) Temp. Heat Index Dew Point Humidity Pressure Visibility Wind Dir Wind Speed Gust Speed Precip Events Conditions
12:15 AM 53.6 °F - 50.0 °F 88% 29.91 in 10.0 mi South 6.9 mph - N/A   Clear
12:35 AM 51.8 °F - 48.2 °F 88% 29.92 in 10.0 mi South 8.1 mph - N/A   Clear
12:55 AM 51.8 °F - 48.2 °F 88% 29.92 in 10.0 mi South 8.1 mph - N/A   Clear
1:15 AM 51.8 °F - 48.2 °F 88% 29.92 in 10.0 mi South 6.9 mph - N/A   Clear
1:35 AM 51.8 °F - 48.2 °F 88% 29.92 in 10.0 mi South 6.9 mph - N/A   Clear
1:55 AM 53.6 °F - 50.0 °F 88% 29.92 in 10.0 mi South 8.1 mph - N/A   Clear
2:15 AM 53.6 °F - 50.0 °F 88% 29.91 in 10.0 mi South 6.9 mph - N/A   Clear
2:35 AM 53.6 °F - 50.0 °F 88% 29.91 in 10.0 mi South 8.1 mph - N/A   Clear
2:55 AM 53.6 °F - 50.0 °F 88% 29.91 in 10.0 mi South 8.1 mph - N/A   Clear
3:15 AM 53.6 °F - 50.0 °F 88% 29.91 in 10.0 mi South 8.1 mph - N/A   Clear
3:35 AM 53.6 °F - 50.0 °F 88% 29.91 in 10.0 mi South 8.1 mph - N/A   Clear
3:55 AM 53.6 °F - 50.0 °F 88% 29.91 in 10.0 mi South 8.1 mph - N/A   Clear
4:15 AM 53.6 °F - 50.0 °F 88% 29.91 in 10.0 mi SSE 5.8 mph - N/A   Clear
4:35 AM 53.6 °F - 50.0 °F 88% 29.92 in 10.0 mi South 5.8 mph - N/A   Clear
4:55 AM 53.6 °F - 50.0 °F 88% 29.92 in 10.0 mi SSE 5.8 mph - N/A   Clear
5:15 AM 53.6 °F - 50.0 °F 88% 29.92 in 10.0 mi SSE 5.8 mph - N/A   Clear
5:35 AM 51.8 °F - 50.0 °F 94% 29.92 in 10.0 mi SSE 5.8 mph - N/A   Clear
5:55 AM 51.8 °F - 50.0 °F 94% 29.92 in 10.0 mi SE 5.8 mph - N/A   Clear
6:15 AM 51.8 °F - 50.0 °F 94% 29.92 in 10.0 mi SSE 5.8 mph - N/A   Clear
6:35 AM 51.8 °F - 50.0 °F 94% 29.92 in 10.0 mi SSE 6.9 mph - N/A   Clear
6:55 AM 51.8 °F - 50.0 °F 94% 29.92 in 10.0 mi SSE 6.9 mph - N/A   Clear
7:15 AM 53.6 °F - 50.0 °F 88% 29.92 in 10.0 mi SSE 5.8 mph - N/A   Clear
7:35 AM 55.4 °F - 51.8 °F 88% 29.93 in 10.0 mi SSE 5.8 mph - N/A   Clear
7:55 AM 57.2 °F - 51.8 °F 82% 29.93 in 10.0 mi South 9.2 mph - N/A   Clear
8:15 AM 59.0 °F - 53.6 °F 82% 29.93 in 10.0 mi South 9.2 mph - N/A   Clear
8:35 AM 60.8 °F - 53.6 °F 77% 29.93 in 10.0 mi South 10.4 mph - N/A   Clear
8:55 AM 62.6 °F - 55.4 °F 77% 29.93 in 10.0 mi South 9.2 mph - N/A   Clear
9:15 AM 64.4 °F - 55.4 °F 73% 29.93 in 10.0 mi South 9.2 mph - N/A   Clear
9:55 AM 68.0 °F - 57.2 °F 68% 29.93 in 10.0 mi South 8.1 mph - N/A   Clear
10:15 AM 69.8 °F - 59.0 °F 68% 29.93 in 10.0 mi South 9.2 mph - N/A   Clear
10:35 AM 69.8 °F - 59.0 °F 68% 29.93 in 10.0 mi SSW 8.1 mph - N/A   Scattered Clouds
10:55 AM 71.6 °F - 59.0 °F 64% 29.93 in 10.0 mi South 9.2 mph - N/A   Scattered Clouds
11:15 AM 73.4 °F - 60.8 °F 65% 29.93 in 10.0 mi SW 8.1 mph - N/A   Scattered Clouds
11:35 AM 73.4 °F - 60.8 °F 65% 29.93 in 10.0 mi SSW 10.4 mph - N/A   Clear
11:55 AM 75.2 °F - 60.8 °F 61% 29.93 in 10.0 mi SSW 9.2 mph - N/A   Clear
12:15 PM 77.0 °F - 62.6 °F 61% 29.92 in 10.0 mi SW 10.4 mph - N/A   Clear
12:35 PM 77.0 °F - 62.6 °F 61% 29.92 in 10.0 mi SW 8.1 mph - N/A   Clear
12:55 PM 78.8 °F - 62.6 °F 57% 29.92 in 10.0 mi SW 10.4 mph - N/A   Clear
1:15 PM 78.8 °F - 64.4 °F 61% 29.91 in 10.0 mi SSW 11.5 mph 17.3 mph N/A   Clear
1:35 PM 80.6 °F 82.3 °F 64.4 °F 58% 29.91 in 10.0 mi SSW 11.5 mph 18.4 mph N/A   Clear
1:55 PM 80.6 °F 82.3 °F 64.4 °F 58% 29.91 in 10.0 mi SSW 16.1 mph - N/A   Clear
2:15 PM 80.6 °F 82.3 °F 64.4 °F 58% 29.90 in 10.0 mi SSW 10.4 mph 16.1 mph N/A   Clear
2:35 PM 82.4 °F 83.9 °F 64.4 °F 54% 29.90 in 10.0 mi SSW 10.4 mph - N/A   Clear
2:55 PM 82.4 °F 83.9 °F 64.4 °F 54% 29.90 in 10.0 mi SW 11.5 mph - N/A   Clear
3:15 PM 82.4 °F 83.9 °F 64.4 °F 54% 29.89 in 10.0 mi SSW 8.1 mph - N/A   Scattered Clouds
3:35 PM 82.4 °F 83.9 °F 64.4 °F 54% 29.88 in 10.0 mi South 8.1 mph - N/A   Scattered Clouds
3:55 PM 82.4 °F 83.9 °F 64.4 °F 54% 29.88 in 10.0 mi South 10.4 mph - N/A   Scattered Clouds
4:15 PM 82.4 °F 83.9 °F 64.4 °F 54% 29.88 in 10.0 mi South 12.7 mph 16.1 mph N/A   Mostly Cloudy
4:35 PM 82.4 °F 83.9 °F 64.4 °F 54% 29.87 in 10.0 mi SSE 9.2 mph - N/A   Mostly Cloudy
5:15 PM 82.4 °F 83.9 °F 64.4 °F 54% 29.87 in 10.0 mi South 9.2 mph - N/A   Scattered Clouds
5:35 PM 82.4 °F 83.9 °F 64.4 °F 54% 29.87 in 10.0 mi SSE 11.5 mph - N/A   Scattered Clouds
5:55 PM 82.4 °F 83.9 °F 64.4 °F 54% 29.87 in 10.0 mi South 11.5 mph - N/A   Scattered Clouds
6:15 PM 82.4 °F 84.6 °F 66.2 °F 58% 29.87 in 10.0 mi SSE 11.5 mph - N/A   Scattered Clouds
6:35 PM 80.6 °F 82.3 °F 64.4 °F 58% 29.87 in 10.0 mi SSE 11.5 mph - N/A   Scattered Clouds
6:55 PM 80.6 °F 82.7 °F 66.2 °F 61% 29.87 in 10.0 mi SSE 10.4 mph - N/A   Scattered Clouds
7:15 PM 80.6 °F 82.3 °F 64.4 °F 58% 29.87 in 10.0 mi South 10.4 mph - N/A   Scattered Clouds
7:35 PM 78.8 °F - 64.4 °F 61% 29.87 in 10.0 mi SSE 10.4 mph - N/A   Clear
7:55 PM 77.0 °F - 64.4 °F 65% 29.87 in 10.0 mi SSE 8.1 mph - N/A   Clear
8:15 PM 75.2 °F - 64.4 °F 69% 29.87 in 10.0 mi SSE 8.1 mph - N/A   Clear
8:35 PM 73.4 °F - 64.4 °F 73% 29.87 in 10.0 mi SSE 6.9 mph - N/A   Clear
8:55 PM 71.6 °F - 64.4 °F 78% 29.88 in 10.0 mi SE 6.9 mph - N/A   Clear
10:35 PM 69.8 °F - 64.4 °F 83% 29.90 in 10.0 mi SE 8.1 mph - N/A   Clear
11:15 PM 69.8 °F - 64.4 °F 83% 29.90 in 10.0 mi SSE 8.1 mph - N/A   Clear
11:35 PM 68.0 °F - 64.4 °F 88% 29.91 in 10.0 mi SSE 8.1 mph - N/A   Clear
11:55 PM 68.0 °F - 64.4 °F 88% 29.90 in 10.0 mi SSE 9.2 mph - N/A   Scattered Clouds